Time,TemperatureF,DewpointF,PressureIn,WindDirection,WindDirectionDegrees,WindSpeedMPH,WindSpeedGustMPH,Humidity,HourlyPrecipIn,Conditions,Clouds,dailyrainin,SoftwareType,DateUTC
2013-03-04 00:01:00,36.0,34.0,30.31,NNW,346,0.0,-999.0,94,-99.99,,,-99.99,,2013-03-04 08:01:00,
2013-03-04 00:11:00,36.0,34.0,30.31,NNW,346,0.0,-999.0,94,-99.99,,,-99.99,,2013-03-04 08:11:00,
2013-03-04 00:21:00,36.0,35.0,30.31,NNW,346,0.0,-999.0,95,-99.99,,,-99.99,,2013-03-04 08:21:00,
2013-03-04 00:31:00,36.0,35.0,30.31,NNW,346,0.0,-999.0,95,-99.99,,,-99.99,,2013-03-04 08:31:00,
2013-03-04 00:41:00,36.0,35.0,30.31,NNW,346,0.0,-999.0,95,-99.99,,,-99.99,,2013-03-04 08:41:00,
2013-03-04 00:52:00,35.0,34.0,30.31,NNW,346,0.0,-999.0,95,-99.99,,,-99.99,,2013-03-04 08:52:00,
2013-03-04 01:01:00,35.0,34.0,30.31,NNW,346,0.0,-999.0,95,-99.99,,,-99.99,,2013-03-04 09:01:00,
2013-03-04 01:11:00,35.0,34.0,30.31,NNW,346,0.0,-999.0,95,-99.99,,,-99.99,,2013-03-04 09:11:00,
2013-03-04 01:21:00,35.0,34.0,30.30,NNW,346,0.0,-999.0,95,-99.99,,,-99.99,,2013-03-04 09:21:00,
2013-03-04 01:31:00,35.0,34.0,30.30,NNW,346,0.0,-999.0,95,-99.99,,,-99.99,,2013-03-04 09:31:00,
2013-03-04 01:41:00,35.0,34.0,30.30,NNW,346,0.0,-999.0,95,-99.99,,,-99.99,,2013-03-04 09:41:00,
2013-03-04 01:52:00,34.0,33.0,30.30,NNW,346,0.0,-999.0,95,-99.99,,,-99.99,,2013-03-04 09:52:00,
2013-03-04 02:01:00,34.0,33.0,30.30,NNW,346,0.0,-999.0,95,-99.99,,,-99.99,,2013-03-04 10:01:00,
2013-03-04 02:11:00,34.0,33.0,30.30,NNW,346,0.0,-999.0,95,-99.99,,,-99.99,,2013-03-04 10:11:00,
2013-03-04 02:21:00,34.0,33.0,30.30,NNW,346,0.0,-999.0,95,-99.99,,,-99.99,,2013-03-04 10:21:00,
2013-03-04 02:31:00,34.0,33.0,30.30,NNW,346,0.0,-999.0,95,-99.99,,,-99.99,,2013-03-04 10:31:00,
2013-03-04 02:41:00,34.0,33.0,30.30,NNW,346,0.0,-999.0,95,-99.99,,,-99.99,,2013-03-04 10:41:00,
2013-03-04 02:52:00,34.0,32.0,30.30,NNW,346,0.0,-999.0,94,-99.99,,,-99.99,,2013-03-04 10:52:00,
2013-03-04 03:01:00,33.0,31.0,30.29,NNW,346,0.0,-999.0,94,-99.99,,,-99.99,,2013-03-04 11:01:00,
2013-03-04 03:11:00,33.0,31.0,30.29,NNW,346,0.0,-999.0,94,-99.99,,,-99.99,,2013-03-04 11:11:00,
2013-03-04 03:21:00,33.0,32.0,30.29,NNW,346,0.0,-999.0,95,-99.99,,,-99.99,,2013-03-04 11:21:00,
2013-03-04 03:31:00,33.0,32.0,30.29,NNW,346,0.0,-999.0,95,-99.99,,,-99.99,,2013-03-04 11:31:00,
2013-03-04 03:41:00,33.0,32.0,30.29,NNW,346,0.0,-999.0,95,-99.99,,,-99.99,,2013-03-04 11:41:00,
2013-03-04 03:52:00,33.0,32.0,30.28,NNW,346,0.0,-999.0,96,-99.99,,,-99.99,,2013-03-04 11:52:00,
2013-03-04 04:01:00,33.0,32.0,30.28,NNW,346,0.0,-999.0,96,-99.99,,,-99.99,,2013-03-04 12:01:00,
2013-03-04 04:11:00,33.0,32.0,30.28,NNW,346,0.0,-999.0,96,-99.99,,,-99.99,,2013-03-04 12:11:00,
2013-03-04 04:22:00,33.0,32.0,30.28,NNW,346,0.0,-999.0,96,-99.99,,,-99.99,,2013-03-04 12:22:00,
2013-03-04 04:32:00,33.0,32.0,30.28,NNW,346,0.0,-999.0,96,-99.99,,,-99.99,,2013-03-04 12:32:00,
2013-03-04 04:42:00,33.0,32.0,30.28,NNW,346,0.0,-999.0,96,-99.99,,,-99.99,,2013-03-04 12:42:00,
2013-03-04 04:52:00,33.0,32.0,30.28,NNW,346,0.0,-999.0,96,-99.99,,,-99.99,,2013-03-04 12:52:00,
2013-03-04 05:02:00,33.0,32.0,30.28,NNW,346,0.0,-999.0,96,-99.99,,,-99.99,,2013-03-04 13:02:00,
2013-03-04 05:11:00,33.0,32.0,30.28,NNW,346,0.0,-999.0,96,-99.99,,,-99.99,,2013-03-04 13:11:00,
2013-03-04 05:21:00,32.0,31.0,30.27,NNW,346,0.0,-999.0,96,-99.99,,,-99.99,,2013-03-04 13:21:00,
2013-03-04 05:31:00,32.0,31.0,30.27,NNW,346,0.0,-999.0,96,-99.99,,,-99.99,,2013-03-04 13:31:00,
2013-03-04 05:41:00,32.0,31.0,30.27,NNW,346,0.0,-999.0,96,-99.99,,,-99.99,,2013-03-04 13:41:00,
2013-03-04 05:52:00,33.0,32.0,30.27,NNW,346,0.0,-999.0,96,-99.99,,,-99.99,,2013-03-04 13:52:00,
2013-03-04 06:01:00,33.0,32.0,30.27,NNW,346,0.0,-999.0,96,-99.99,,,-99.99,,2013-03-04 14:01:00,
2013-03-04 06:11:00,33.0,32.0,30.27,NNW,346,0.0,-999.0,96,-99.99,,,-99.99,,2013-03-04 14:11:00,
2013-03-04 06:22:00,33.0,32.0,30.26,NNW,348,0.0,-999.0,96,-99.99,,,-99.99,,2013-03-04 14:22:00,
2013-03-04 06:31:00,33.0,32.0,30.26,NNW,348,0.0,-999.0,96,-99.99,,,-99.99,,2013-03-04 14:31:00,
2013-03-04 06:41:00,33.0,32.0,30.26,NNW,348,0.0,-999.0,96,-99.99,,,-99.99,,2013-03-04 14:41:00,
2013-03-04 06:52:00,33.0,32.0,30.26,ENE,68,0.0,-999.0,96,-99.99,,,-99.99,,2013-03-04 14:52:00,
2013-03-04 07:01:00,33.0,32.0,30.26,ENE,68,0.0,-999.0,96,-99.99,,,-99.99,,2013-03-04 15:01:00,
2013-03-04 07:11:00,33.0,32.0,30.26,ENE,68,0.0,-999.0,96,-99.99,,,-99.99,,2013-03-04 15:11:00,
2013-03-04 07:21:00,33.0,32.0,30.25,ENE,68,0.0,-999.0,96,-99.99,,,-99.99,,2013-03-04 15:21:00,
2013-03-04 07:31:00,33.0,32.0,30.25,ENE,68,0.0,-999.0,96,-99.99,,,-99.99,,2013-03-04 15:31:00,
2013-03-04 07:41:00,33.0,32.0,30.25,ENE,68,0.0,-999.0,96,-99.99,,,-99.99,,2013-03-04 15:41:00,
2013-03-04 07:52:00,34.0,33.0,30.24,ENE,68,0.0,-999.0,95,-99.99,,,-99.99,,2013-03-04 15:52:00,
2013-03-04 08:02:00,35.0,33.0,30.25,NE,36,0.0,-999.0,94,-99.99,,,-99.99,,2013-03-04 16:02:00,
2013-03-04 08:11:00,35.0,33.0,30.25,NE,36,0.0,-999.0,94,-99.99,,,-99.99,,2013-03-04 16:11:00,
2013-03-04 08:21:00,35.0,33.0,30.25,NE,36,1.0,-999.0,93,-99.99,,,-99.99,,2013-03-04 16:21:00,
2013-03-04 08:31:00,36.0,34.0,30.25,NNE,27,1.0,-999.0,92,-99.99,,,-99.99,,2013-03-04 16:31:00,
2013-03-04 08:41:00,36.0,34.0,30.25,NNE,27,1.0,-999.0,92,-99.99,,,-99.99,,2013-03-04 16:41:00,
2013-03-04 08:52:00,36.0,33.0,30.25,NNE,33,0.0,-999.0,90,-99.99,,,-99.99,,2013-03-04 16:52:00,
2013-03-04 09:01:00,36.0,33.0,30.25,NE,49,1.0,-999.0,89,-99.99,,,-99.99,,2013-03-04 17:01:00,
2013-03-04 09:11:00,36.0,33.0,30.25,NE,49,1.0,-999.0,89,-99.99,,,-99.99,,2013-03-04 17:11:00,
2013-03-04 09:21:00,38.0,35.0,30.24,NNE,19,2.0,-999.0,88,-99.99,,,-99.99,,2013-03-04 17:21:00,
2013-03-04 09:31:00,38.0,35.0,30.24,NNE,27,1.0,-999.0,88,-99.99,,,-99.99,,2013-03-04 17:31:00,
2013-03-04 09:42:00,38.0,35.0,30.24,NNE,27,1.0,-999.0,88,-99.99,,,-99.99,,2013-03-04 17:42:00,
2013-03-04 09:52:00,38.0,34.0,30.23,NNW,343,2.0,-999.0,86,-99.99,,,-99.99,,2013-03-04 17:52:00,
2013-03-04 10:01:00,39.0,35.0,30.23,NE,36,2.0,-999.0,86,-99.99,,,-99.99,,2013-03-04 18:01:00,
2013-03-04 10:11:00,39.0,35.0,30.23,NE,36,2.0,-999.0,86,-99.99,,,-99.99,,2013-03-04 18:11:00,
2013-03-04 10:21:00,39.0,35.0,30.22,North,9,1.0,-999.0,84,-99.99,,,-99.99,,2013-03-04 18:21:00,
2013-03-04 10:31:00,40.0,35.0,30.22,NE,51,2.0,-999.0,82,-99.99,,,-99.99,,2013-03-04 18:31:00,
2013-03-04 10:42:00,40.0,35.0,30.22,NE,51,2.0,-999.0,82,-99.99,,,-99.99,,2013-03-04 18:42:00,
2013-03-04 10:52:00,41.0,35.0,30.22,ENE,67,2.0,-999.0,80,-99.99,,,-99.99,,2013-03-04 18:52:00,
2013-03-04 11:01:00,41.0,35.0,30.21,North,9,3.0,-999.0,79,-99.99,,,-99.99,,2013-03-04 19:01:00,
2013-03-04 11:11:00,41.0,35.0,30.21,North,9,3.0,-999.0,79,-99.99,,,-99.99,,2013-03-04 19:11:00,
2013-03-04 11:21:00,43.0,36.0,30.20,NNW,342,3.0,-999.0,77,-99.99,,,-99.99,,2013-03-04 19:21:00,
2013-03-04 11:31:00,44.0,37.0,30.20,NE,49,2.0,-999.0,76,-99.99,,,-99.99,,2013-03-04 19:31:00,
2013-03-04 11:41:00,44.0,37.0,30.20,NE,49,2.0,-999.0,76,-99.99,,,-99.99,,2013-03-04 19:41:00,
2013-03-04 11:52:00,44.0,36.0,30.19,NNE,21,3.0,-999.0,73,-99.99,,,-99.99,,2013-03-04 19:52:00,
2013-03-04 12:01:00,45.0,37.0,30.18,NNW,328,2.0,-999.0,72,-99.99,,,-99.99,,2013-03-04 20:01:00,
2013-03-04 12:11:00,45.0,37.0,30.18,NNW,328,2.0,-999.0,72,-99.99,,,-99.99,,2013-03-04 20:11:00,
2013-03-04 12:21:00,47.0,36.0,30.16,NNW,344,2.0,-999.0,65,-99.99,,,-99.99,,2013-03-04 20:21:00,
2013-03-04 12:31:00,48.0,36.0,30.16,ENE,57,2.0,-999.0,64,-99.99,,,-99.99,,2013-03-04 20:31:00,
2013-03-04 12:41:00,48.0,36.0,30.16,ENE,57,2.0,-999.0,64,-99.99,,,-99.99,,2013-03-04 20:41:00,
2013-03-04 12:52:00,49.0,35.0,30.15,NW,313,2.0,-999.0,59,-99.99,,,-99.99,,2013-03-04 20:52:00,
2013-03-04 13:01:00,49.0,35.0,30.14,NNE,30,2.0,-999.0,58,-99.99,,,-99.99,,2013-03-04 21:01:00,
2013-03-04 13:11:00,49.0,35.0,30.14,NNE,30,2.0,-999.0,58,-99.99,,,-99.99,,2013-03-04 21:11:00,
2013-03-04 13:21:00,50.0,35.0,30.12,NNE,21,2.0,-999.0,56,-99.99,,,-99.99,,2013-03-04 21:21:00,
2013-03-04 13:31:00,50.0,35.0,30.11,NE,36,3.0,-999.0,56,-99.99,,,-99.99,,2013-03-04 21:31:00,
2013-03-04 13:42:00,50.0,35.0,30.11,NE,36,3.0,-999.0,56,-99.99,,,-99.99,,2013-03-04 21:42:00,
2013-03-04 13:52:00,51.0,34.0,30.10,North,5,2.0,-999.0,53,-99.99,,,-99.99,,2013-03-04 21:52:00,
2013-03-04 14:01:00,52.0,34.0,30.09,NNE,19,3.0,-999.0,50,-99.99,,,-99.99,,2013-03-04 22:01:00,
2013-03-04 14:11:00,52.0,34.0,30.09,NNE,19,3.0,-999.0,50,-99.99,,,-99.99,,2013-03-04 22:11:00,
2013-03-04 14:21:00,52.0,33.0,30.09,NNW,337,2.0,-999.0,49,-99.99,,,-99.99,,2013-03-04 22:21:00,
2013-03-04 14:31:00,52.0,33.0,30.08,NE,55,2.0,-999.0,49,-99.99,,,-99.99,,2013-03-04 22:31:00,
2013-03-04 14:52:00,53.0,32.0,30.08,North,355,2.0,-999.0,44,-99.99,,,-99.99,,2013-03-04 22:52:00,
2013-03-04 15:01:00,53.0,31.0,30.07,NW,316,2.0,-999.0,43,-99.99,,,-99.99,,2013-03-04 23:01:00,
2013-03-04 15:11:00,53.0,31.0,30.07,NW,316,2.0,-999.0,43,-99.99,,,-99.99,,2013-03-04 23:11:00,
2013-03-04 15:21:00,54.0,32.0,30.06,North,355,1.0,-999.0,43,-99.99,,,-99.99,,2013-03-04 23:21:00,
2013-03-04 15:31:00,54.0,31.0,30.05,North,11,2.0,-999.0,41,-99.99,,,-99.99,,2013-03-04 23:31:00,
2013-03-04 15:41:00,54.0,31.0,30.05,North,11,2.0,-999.0,41,-99.99,,,-99.99,,2013-03-04 23:41:00,
2013-03-04 15:52:00,54.0,30.0,30.04,NNW,346,1.0,-999.0,40,-99.99,,,-99.99,,2013-03-04 23:52:00,
2013-03-04 16:01:00,54.0,29.0,30.03,NNW,341,2.0,-999.0,38,-99.99,,,-99.99,,2013-03-05 00:01:00,
2013-03-04 16:11:00,54.0,29.0,30.03,NNW,341,2.0,-999.0,38,-99.99,,,-99.99,,2013-03-05 00:11:00,
2013-03-04 16:21:00,54.0,28.0,30.03,North,10,2.0,-999.0,37,-99.99,,,-99.99,,2013-03-05 00:21:00,
2013-03-04 16:32:00,54.0,28.0,30.02,ENE,62,2.0,-999.0,37,-99.99,,,-99.99,,2013-03-05 00:32:00,
2013-03-04 16:41:00,54.0,28.0,30.02,ENE,62,2.0,-999.0,37,-99.99,,,-99.99,,2013-03-05 00:41:00,
2013-03-04 16:52:00,53.0,29.0,30.01,NW,317,1.0,-999.0,39,-99.99,,,-99.99,,2013-03-05 00:52:00,
2013-03-04 17:01:00,53.0,29.0,30.01,NW,317,1.0,-999.0,39,-99.99,,,-99.99,,2013-03-05 01:01:00,
2013-03-04 17:11:00,53.0,29.0,30.01,NW,317,1.0,-999.0,39,-99.99,,,-99.99,,2013-03-05 01:11:00,
2013-03-04 17:21:00,52.0,28.0,30.02,ENE,57,1.0,-999.0,40,-99.99,,,-99.99,,2013-03-05 01:21:00,
2013-03-04 17:32:00,52.0,30.0,30.01,East,79,1.0,-999.0,42,-99.99,,,-99.99,,2013-03-05 01:32:00,
2013-03-04 17:42:00,52.0,30.0,30.01,East,79,1.0,-999.0,42,-99.99,,,-99.99,,2013-03-05 01:42:00,
2013-03-04 17:52:00,52.0,29.0,30.01,ENE,68,1.0,-999.0,41,-99.99,,,-99.99,,2013-03-05 01:52:00,
2013-03-04 18:01:00,51.0,28.0,30.01,NE,49,1.0,-999.0,41,-99.99,,,-99.99,,2013-03-05 02:01:00,
2013-03-04 18:11:00,51.0,28.0,30.01,NE,49,1.0,-999.0,41,-99.99,,,-99.99,,2013-03-05 02:11:00,
2013-03-04 18:21:00,51.0,28.0,30.00,NE,42,1.0,-999.0,40,-99.99,,,-99.99,,2013-03-05 02:21:00,
2013-03-04 18:31:00,50.0,27.0,30.00,NNE,22,1.0,-999.0,41,-99.99,,,-99.99,,2013-03-05 02:31:00,
2013-03-04 18:41:00,50.0,27.0,30.00,NNE,22,1.0,-999.0,41,-99.99,,,-99.99,,2013-03-05 02:41:00,
2013-03-04 18:52:00,50.0,28.0,29.99,North,5,0.0,-999.0,42,-99.99,,,-99.99,,2013-03-05 02:52:00,
2013-03-04 19:01:00,50.0,28.0,29.99,ENE,65,1.0,-999.0,42,-99.99,,,-99.99,,2013-03-05 03:01:00,
2013-03-04 19:11:00,50.0,28.0,29.99,ENE,65,1.0,-999.0,42,-99.99,,,-99.99,,2013-03-05 03:11:00,
2013-03-04 19:21:00,49.0,27.0,29.98,North,355,1.0,-999.0,43,-99.99,,,-99.99,,2013-03-05 03:21:00,
2013-03-04 19:31:00,49.0,28.0,29.98,NNE,13,1.0,-999.0,44,-99.99,,,-99.99,,2013-03-05 03:31:00,
2013-03-04 19:41:00,49.0,28.0,29.98,NNE,13,1.0,-999.0,44,-99.99,,,-99.99,,2013-03-05 03:41:00,
2013-03-04 19:52:00,48.0,28.0,29.97,NNE,18,1.0,-999.0,45,-99.99,,,-99.99,,2013-03-05 03:52:00,
2013-03-04 20:01:00,48.0,28.0,29.97,NNW,340,1.0,-999.0,45,-99.99,,,-99.99,,2013-03-05 04:01:00,
2013-03-04 20:11:00,48.0,28.0,29.97,NNW,340,1.0,-999.0,45,-99.99,,,-99.99,,2013-03-05 04:11:00,
2013-03-04 20:21:00,48.0,27.0,29.97,NNW,337,1.0,-999.0,44,-99.99,,,-99.99,,2013-03-05 04:21:00,
2013-03-04 20:31:00,48.0,28.0,29.97,NW,312,0.0,-999.0,46,-99.99,,,-99.99,,2013-03-05 04:31:00,
2013-03-04 20:41:00,48.0,28.0,29.97,NW,312,0.0,-999.0,46,-99.99,,,-99.99,,2013-03-05 04:41:00,
2013-03-04 20:52:00,47.0,30.0,29.96,NNW,329,1.0,-999.0,52,-99.99,,,-99.99,,2013-03-05 04:52:00,
2013-03-04 21:01:00,46.0,29.0,29.96,North,10,0.0,-999.0,52,-99.99,,,-99.99,,2013-03-05 05:01:00,
2013-03-04 21:11:00,46.0,29.0,29.96,North,10,0.0,-999.0,52,-99.99,,,-99.99,,2013-03-05 05:11:00,
2013-03-04 21:22:00,45.0,29.0,29.96,NNW,342,0.0,-999.0,54,-99.99,,,-99.99,,2013-03-05 05:22:00,
2013-03-04 21:31:00,45.0,29.0,29.96,NNW,342,0.0,-999.0,53,-99.99,,,-99.99,,2013-03-05 05:31:00,
2013-03-04 21:41:00,45.0,29.0,29.96,NNW,342,0.0,-999.0,53,-99.99,,,-99.99,,2013-03-05 05:41:00,
2013-03-04 21:52:00,44.0,29.0,29.96,NNW,342,0.0,-999.0,56,-99.99,,,-99.99,,2013-03-05 05:52:00,
2013-03-04 22:01:00,44.0,30.0,29.96,NNW,342,0.0,-999.0,58,-99.99,,,-99.99,,2013-03-05 06:01:00,
2013-03-04 22:11:00,44.0,30.0,29.96,NNW,342,0.0,-999.0,58,-99.99,,,-99.99,,2013-03-05 06:11:00,
2013-03-04 22:22:00,43.0,29.0,29.96,NNW,342,0.0,-999.0,58,-99.99,,,-99.99,,2013-03-05 06:22:00,
2013-03-04 22:31:00,44.0,29.0,29.96,NNW,342,0.0,-999.0,56,-99.99,,,-99.99,,2013-03-05 06:31:00,
2013-03-04 22:41:00,44.0,29.0,29.96,NNW,342,0.0,-999.0,56,-99.99,,,-99.99,,2013-03-05 06:41:00,
2013-03-04 22:52:00,44.0,30.0,29.95,NNW,342,0.0,-999.0,58,-99.99,,,-99.99,,2013-03-05 06:52:00,
2013-03-04 23:01:00,44.0,30.0,29.95,NNW,342,0.0,-999.0,57,-99.99,,,-99.99,,2013-03-05 07:01:00,
2013-03-04 23:11:00,44.0,30.0,29.95,NNW,342,0.0,-999.0,57,-99.99,,,-99.99,,2013-03-05 07:11:00,
2013-03-04 23:21:00,43.0,30.0,29.94,NNW,342,0.0,-999.0,59,-99.99,,,-99.99,,2013-03-05 07:21:00,
2013-03-04 23:31:00,43.0,28.0,29.94,NNW,342,0.0,-999.0,56,-99.99,,,-99.99,,2013-03-05 07:31:00,
2013-03-04 23:41:00,43.0,28.0,29.94,NNW,342,0.0,-999.0,56,-99.99,,,-99.99,,2013-03-05 07:41:00,
2013-03-04 23:52:00,43.0,28.0,29.94,NNW,342,0.0,-999.0,55,-99.99,,,-99.99,,2013-03-05 07:52:00,